Weather History for Kamloops, BC

Change the Weather History Date:

Monday, September 9, 2013

  Actual Average Record
Temperature  
Mean Temperature 70 °F -  
Max Temperature 85 °F 71 °F 89 °F (2011)
Min Temperature 55 °F 49 °F 41 °F (2000)
Cooling Degree Days 5    
Growing Degree Days 20 (Base 50)    
Moisture  
Dew Point 52 °F    
Average Humidity 55    
Maximum Humidity 88    
Minimum Humidity 20    
Precipitation  
Precipitation 0.00 in - - ()
Sea Level Pressure  
Sea Level Pressure 29.97 in    
Wind  
Wind Speed 3 mph ()    
Max Wind Speed 9 mph    
Max Gust Speed -    
Averages and records for this station are not official NWS values.
T = Trace of Precipitation, MM = Missing Value Source: Averaged Metar Reports

Daily Weather History Graph

Daily Weather History Graph

Search for Another Location

Airport:

Trip Planner

Search our weather history database for the weather conditions in past years. The results will help you decide how hot, cold, wet, or windy it might be!

Date:

Astronomy

Sep. 09, 2013 Rise Set
Actual Time 6:28 AM PDT 7:28 PM PDT
Civil Twilight 5:55 AM PDT 8:01 PM PDT
Nautical Twilight 5:14 AM PDT 8:41 PM PDT
Astronomical Twilight 4:31 AM PDT 9:24 PM PDT
Moon 11:29 AM PDT (9/9) 9:13 PM PDT (9/9)
Length of Visible Light 14h 06m
Length of Day
12h 59m
Waxing Crescent, 20% of the Moon is Illuminated
Sep 9
Waxing Crescent
Sep 12
First Quarter
Sep 19
Full
Sep 26
Last Quarter
Oct 4
New

Hourly Weather History & Observations

Time (PDT) Temp. Dew Point Humidity Pressure Visibility Wind Dir Wind Speed Gust Speed Precip Events Conditions
12:00 AM 66.2 °F 55.4 °F 68% 29.94 in 40.0 mi WNW 2.3 mph - N/A   Scattered Clouds
1:00 AM 64.4 °F 55.4 °F 73% 29.95 in 40.0 mi South 3.5 mph - N/A   Scattered Clouds
2:00 AM 62.6 °F 55.4 °F 77% 29.95 in 40.0 mi Calm Calm - N/A   Scattered Clouds
3:00 AM 57.2 °F 51.8 °F 82% 29.97 in 40.0 mi West 2.3 mph - N/A   Scattered Clouds
4:00 AM 60.8 °F 55.4 °F 82% 29.97 in 40.0 mi Variable 2.3 mph - N/A   Partly Cloudy
5:00 AM 59 °F 54 °F 78% 29.99 in 37 mi NNW 1.2 mph - -   Clear
5:00 AM 59.0 °F 53.6 °F 82% 29.99 in 40.0 mi Calm Calm - N/A   Scattered Clouds
6:00 AM 57.2 °F 53.6 °F 88% 30.01 in 40.0 mi East 9.2 mph - N/A   Partly Cloudy
7:00 AM 57.2 °F 53.6 °F 88% 30.03 in 40.0 mi ENE 4.6 mph - N/A   Partly Cloudy
8:00 AM 60.8 °F 53.6 °F 77% 30.04 in 40.0 mi ENE 4.6 mph - N/A   Mostly Cloudy
9:00 AM 64.4 °F 53.6 °F 68% 30.04 in 40.0 mi East 6.9 mph - N/A   Partly Cloudy
10:00 AM 68.0 °F 53.6 °F 60% 30.03 in 40.0 mi Calm Calm - N/A   Partly Cloudy
11:00 AM 72 °F 53 °F 41% 30.03 in 37 mi South 3.5 mph - -   Scattered Clouds
11:00 AM 73.4 °F 53.6 °F 50% 30.02 in 40.0 mi Variable 2.3 mph - N/A   Partly Cloudy
12:00 PM 75.2 °F 51.8 °F 44% 30.01 in 40.0 mi West 9.2 mph - N/A   Mostly Cloudy
1:00 PM 78.8 °F 48.2 °F 34% 29.98 in 40.0 mi West 5.8 mph - N/A   Scattered Clouds
2:00 PM 80.6 °F 48.2 °F 32% 29.97 in 40.0 mi South 4.6 mph - N/A   Scattered Clouds
3:00 PM 82.4 °F 48.2 °F 30% 29.94 in 40.0 mi SSE 3.5 mph - N/A   Scattered Clouds
4:00 PM 84.2 °F 48.2 °F 29% 29.92 in 40.0 mi WSW 3.5 mph - N/A   Mostly Cloudy
5:00 PM 84 °F 49 °F 20% 29.92 in 37 mi West 6.9 mph - -   Scattered Clouds
5:00 PM 84.2 °F 50.0 °F 30% 29.92 in 40.0 mi West 6.9 mph - N/A   Mostly Cloudy
6:00 PM 84.2 °F 50.0 °F 30% 29.91 in 40.0 mi West 5.8 mph - N/A   Mostly Cloudy
7:00 PM 80.6 °F 50.0 °F 34% 29.92 in 40.0 mi NNW 3.5 mph - N/A   Scattered Clouds
8:00 PM 73.4 °F 50.0 °F 44% 29.94 in 40.0 mi Calm Calm - N/A   Partly Cloudy
9:00 PM 71.6 °F 50.0 °F 46% 29.95 in 40.0 mi ESE 5.8 mph - N/A   Partly Cloudy
10:00 PM 68.0 °F 51.8 °F 56% 29.97 in 40.0 mi East 6.9 mph - N/A   Partly Cloudy
11:00 PM 68 °F 51 °F 44% 29.99 in 37 mi WNW 2.3 mph - -  
11:00 PM 68.0 °F 51.8 °F 56% 29.99 in 40.0 mi WSW 2.3 mph - N/A   Clear